Regional Weather Roundup
Issued by NWS Cleveland, OH

Home | Current Version | Previous Version | Graphics & Text | Print | Product List | Glossary Off
Versions: 1 2 3 4 5 6 7 8 9 10 11 12 13 14 15 16 17 18 19 20 21 22 23 24 25 26 27 28 29 30 31 32 33 34 35 36 37 38 39 40 41 42 43 44 45 46 47 48 49 50

885
ASUS41 KCLE 060712
RWRCLE
OHIO REGIONAL WEATHER ROUNDUP
NATIONAL WEATHER SERVICE WILMINGTON, OH
300 AM EDT FRI MAY 06 2016

NOTE: "FAIR" INDICATES FEW OR NO CLOUDS BELOW 12,000 FEET WITH NO
SIGNIFICANT WEATHER AND/OR OBSTRUCTIONS TO VISIBILITY.

OHZ001>008-015>018-024>027-034-035-043-044-060800-
   NORTHWEST OHIO

CITY           SKY/WX    TMP DP  RH WIND       PRES   REMARKS
DEFIANCE       MOCLDY    50  41  71 NW7       29.92F
FINDLAY        FAIR      45  36  70 CALM      29.90S
TOLEDO EXPRESS FAIR      48  39  71 NW5       29.91S
TOLEDO EXEC    FAIR      49  34  56 NW6       29.91S
LIMA           FAIR      45  41  86 NW6       29.91S
$$

OHZ009>014-019>023-028>033-038-089-060800-
   NORTHEAST OHIO

CITY           SKY/WX    TMP DP  RH WIND       PRES   REMARKS
CLE-HOPKINS    FAIR      48  42  80 NW3       29.89F
CLE-LAKEFRONT  FAIR      49  43  80 N5        29.87S
CUY CO. ARPT   NOT AVBL
LORAIN-ELYRIA  FAIR      45  39  79 N6        29.88S
ASHTABULA      MOCLDY    45  43  93 CALM      29.85S
AKRON-CANTON   FAIR      47  42  83 N9        29.85R
WOOSTER        MOCLDY    45  42  89 N9        29.86S
MANSFIELD      CLOUDY    46  40  79 NW7       29.87F
YOUNGSTOWN     MOCLDY    45  42  89 N10       29.83S
$$

OHZ042-051>053-060>062-070>072-077>081-060800-
  SOUTHWEST OHIO

CITY           SKY/WX    TMP DP  RH WIND       PRES   REMARKS
CINC-COVINGTON FAIR      49  45  86 NW8       29.91F
CINC-LUNKEN    FAIR      50  45  83 N8        29.92S
HAMILTON       FAIR      49  45  86 NW6       29.93S
DAYTON         FAIR      47  42  83 NW8       29.92S
WRIGHT-PAT AFB FAIR      48  42  79 N7        29.90S
DAYTON GENERAL FAIR      49  40  71 N9        29.90S
WILMINGTON     FAIR      48  38  68 N9        29.89S
$$

OHZ036-037-039>041-045>050-054>059-063>069-073>076-082>088-060800-
  CENTRAL AND SOUTHEAST OHIO

CITY           SKY/WX    TMP DP  RH WIND       PRES   REMARKS
COLUMBUS       CLOUDY    50  40  68 N10       29.86R
OSU AIRPORT    CLOUDY    50  38  63 N12       29.86F
BOLTON FIELD   CLOUDY    48  39  70 N8        29.87F
RICKENBACK AFB CLOUDY    51  40  65 N9        29.86R
NEWARK         MOCLDY    51  40  65 N5        29.85S
MARION         FAIR      45  37  73 NW6       29.89S
LANCASTER      FAIR      46  41  82 N5        29.85F
ZANESVILLE     CLOUDY    52  43  71 NW7       29.84S
NEW PHILLY     FAIR      48  43  82 NW6       29.84S
$$




USA.gov is the U.S. government's official web portal to all federal, state and local government web resources and services.